Location: Unspecified
(0.0000°N, 0.0000°E)
Time: 19:19:36
(UTC+00:00)

CZ-3C DEB - Pass Details

Date: 08 March 2026
Orbit: 717 x 38360 km, 18.5° (Epoch: 25 March)

Event Time Altitude Azimuth Distance (km) Brightness Sun altitude
Exits shadow 05:07:23 17° 263° (W) 5,547 ? -15.8°
Maximum altitude 10:20:11 69° 357° (N) 38,253 ? 62.0°
Drops below altitude 10° 15:57:58 10° 110° (ESE) 5,304 ? 33.1°
Sets 16:00:05 0° 110° (ESE) 5,680 ? 32.5°
